Regional Weather Roundup
Issued by NWS

Home | Current Version | Previous Version | Graphics & Text | Print | Product List | Glossary On
Versions: 1 2 3 4 5 6 7 8 9 10 11 12 13 14 15 16 17 18 19 20 21 22 23 24 25 26 27 28 29 30 31 32 33 34 35 36 37 38 39 40 41 42 43 44 45 46 47 48 49 50
000
ASUS45 KCYS 312010
RWRWY

WYOMING REGIONAL WEATHER ROUNDUP
NATIONAL WEATHER SERVICE CHEYENNE WY
200 PM MDT FRI JUL 31 2015

NOTE:  "FAIR" INDICATES FEW OR NO CLOUDS BELOW 12,000 FEET
WITH NO SIGNIFICANT WEATHER AND/OR OBSTRUCTIONS TO VISIBILITY.

WYZ001-312100-
YELLOWSTONE NATIONAL PARK

CITY           SKY/WX    TMP DP  RH WIND       PRES   REMARKS
LK YELLOWSTONE   N/A     74  33  22 VRB5      30.49F
W YELLOWSTONE  NOT AVBL

$$
WYZ002>013-054>058-071-098>099-312100-
NORTHERN WYOMING

CITY           SKY/WX    TMP DP  RH WIND       PRES   REMARKS
JACKSON        SUNNY     79  28  15 CALM      30.37F
CODY           FAIR      88  34  14 NE10      30.24F
GREYBULL       FAIR      92  31  11 VRB5      30.16F
WORLAND        FAIR      91  32  12 N6        30.17F
SHERIDAN       FAIR      92  35  13 CALM      30.18F
BUFFALO        FAIR      88  36  15 VRB6      30.25F
GILLETTE       FAIR      89  40  17 N7        30.20F
HULETT         FAIR      86  46  25 E9        30.24F
NEWCASTLE      FAIR      88  32  13 W5        30.22F

$$
WYZ014>020-022>026-101>103-312100-
CENTRAL WYOMING

CITY           SKY/WX    TMP DP  RH WIND       PRES   REMARKS
BIG PINEY      FAIR      78  28  16 VRB3      30.40F
PINEDALE       FAIR      79  18  10 CALM      30.40F
DUBOIS         FAIR      81  23  12 NE7       30.38F
LANDER         FAIR      85  33  15 NW9       30.25F
RIVERTON       FAIR      85  31  14 E8        30.27F
CASPER         FAIR      89  24   9 VRB5      30.25F
DOUGLAS        FAIR      91  28  10 CALM      30.24F

$$
WYZ021-027>030-104>119-312100-
SOUTHERN WYOMING

CITY           SKY/WX    TMP DP  RH WIND       PRES   REMARKS
EVANSTON       FAIR      81  13   7 VRB6G18   30.41F
KEMMERER       FAIR      81  12   7 W8G17     30.43S
FORT BRIDGER   CLEAR     82  21  10 SE3G18    30.41F
ROCK SPRINGS   FAIR      83  27  13 VRB5      30.36F
DIXON          FAIR      88  20   8 NW10      30.35F
RAWLINS        FAIR      84  20   9 VRB5      30.36F
SARATOGA       FAIR      86  23  10 N9G16     30.38F
LARAMIE        FAIR      79  44  28 E18       30.40S
CHEYENNE       PTSUNNY   71  49  45 NW9G18    30.37R
TORRINGTON     FAIR      92  52  25 VRB7      30.20F
PINE BLUFFS    FAIR      82  43  24 SE9       30.29S

$$


USA.gov is the U.S. government's official web portal to all federal, state and local government web resources and services.